Regional Weather Roundup
Issued by NWS

Home | Current Version | Previous Version | Text Only | Print | Product List | Glossary Off
Versions: 1 2 3 4 5 6 7 8 9 10 11 12 13 14 15 16 17 18 19 20 21 22 23 24 25 26 27 28 29 30 31 32 33 34 35 36 37 38 39 40 41 42 43 44 45 46 47 48 49 50

000
ASUS43 KBIS 262010
RWRND

NORTH DAKOTA REGIONAL WEATHER ROUNDUP
NATIONAL WEATHER SERVICE BISMARCK ND
300 PM CDT THU MAR 26 2015

NOTE: "FAIR" INDICATES FEW OR NO CLOUDS BELOW 12,000 FEET WITH NO
SIGNIFICANT WEATHER AND/OR OBSTRUCTIONS TO VISIBILITY.


NDZ001>003-009>011-017-262100-
NORTHWEST NORTH DAKOTA

CITY           SKY/WX    TMP DP  RH WIND       PRES   REMARKS
WILLISTON      PTSUNNY   45  27  49 SE9       30.18F
MINOT          PTSUNNY   37  20  50 VRB3      30.22F
MINOT AFB      SUNNY     36  24  60 VRB3      30.22F
$$

NDZ018>021-031>035-040>046-262100-
SOUTHWEST NORTH DAKOTA

CITY           SKY/WX    TMP DP  RH WIND       PRES   REMARKS
BISMARCK       CLOUDY    37  22  54 E7        30.23F
DICKINSON      CLOUDY    36  30  79 VRB6      30.16S
GARRISON         N/A     38  23  55 CALM      30.21S
HETTINGER ARPT CLOUDY    35  29  78 SE8       30.18R
$$

NDZ004>008-012>016-024-026-027-054-262100-
NORTHEAST NORTH DAKOTA

CITY           SKY/WX    TMP DP  RH WIND       PRES   REMARKS
GRAND FORKS    FLURRIES  32  17  54 N17G26    30.28F
GRND FRKS AFB  MIX PCPN  30  14  51 NE15      30.28S WCI  19
DEVILS LAKE    CLOUDY    30  14  51 N7        30.26F
$$

NDZ022-023-025-028>030-036>039-047>053-262100-
SOUTHEAST NORTH DAKOTA

CITY           SKY/WX    TMP DP  RH WIND       PRES   REMARKS
FARGO          PTSUNNY   36  10  34 N20G25    30.24F
JAMESTOWN      MOSUNNY   36  11  35 NE13G21   30.22F
$$



USA.gov is the U.S. government's official web portal to all federal, state and local government web resources and services.